K5DSQ Weather Reports


Display with metric or nautical units.
time (UTC)temp
F
wind
direction
speed
MPH
gust
MPH
rain 1hr
in
rain 24hr
in
rain mn
in
humidity
%
barometer
mb
20210302134943 42 312 3.0 6.0 0.00 0.00 0.00 71 1025.7
20210302134432 41 327 3.0 5.0 0.00 0.00 0.00 73 1025.6
20210302133933 40 324 4.0 6.0 0.00 0.00 0.00 74 1025.5
20210302133553 40 302 4.0 6.0 0.00 0.00 0.00 75 1025.4
20210302133117 39 348 3.0 6.0 0.00 0.00 0.00 76 1025.4
20210302132455 39 319 3.0 6.0 0.00 0.00 0.00 77 1025.4
20210302131931 39 312 3.0 6.0 0.00 0.00 0.00 77 1025.4
20210302131432 39 312 4.0 7.0 0.00 0.00 0.00 77 1025.3
20210302130929 39 319 4.0 7.0 0.00 0.00 0.00 77 1025.3
20210302130428 39 355 3.0 6.0 0.00 0.00 0.00 76 1025.2
20210302125931 40 317 3.0 6.0 0.00 0.00 0.00 74 1025.2
20210302125428 40 327 4.0 7.0 0.00 0.00 0.00 73 1025.2
20210302125156 40 306 4.0 8.0 0.00 0.00 0.00 73 1025.2
20210302124428 40 288 4.0 8.0 0.00 0.00 0.00 73 1025.3
20210302123935 40 310 4.0 6.0 0.00 0.00 0.00 74 1025.3
20210302122534 40 314 3.0 6.0 0.00 0.01 0.00 74 1025.3
20210302121945 40 301 4.0 6.0 0.00 0.01 0.00 74 1025.3
20210302121428 40 306 4.0 7.0 0.00 0.01 0.00 74 1025.3
20210302120934 40 289 4.0 7.0 0.00 0.01 0.00 73 1025.3
20210302120427 39 332 3.0 7.0 0.00 0.01 0.00 74 1025.3
20210302115927 39 300 3.0 6.0 0.00 0.01 0.00 76 1025.3
20210302115427 39 332 3.0 7.0 0.00 0.01 0.00 77 1025.2
20210302115138 39 285 3.0 7.0 0.00 0.01 0.00 77 1025.2
20210302114425 40 325 2.0 6.0 0.00 0.01 0.00 77 1025.0
20210302113932 40 0 2.0 5.0 0.00 0.01 0.00 75 1025.0
20210302113419 40 284 4.0 7.0 0.00 0.01 0.00 74 1025.0
20210302112623 40 269 4.0 7.0 0.00 0.01 0.00 75 1025.0
20210302111925 40 282 4.0 6.0 0.00 0.01 0.00 74 1025.0
20210302111429 41 278 4.0 6.0 0.00 0.01 0.00 74 1025.1
20210302110924 41 283 4.0 6.0 0.00 0.01 0.00 72 1025.1
20210302110512 40 304 3.0 5.0 0.00 0.01 0.00 74 1025.1
20210302105924 40 338 2.0 4.0 0.00 0.01 0.00 74 1025.0
20210302105508 41 0 2.0 4.0 0.00 0.01 0.00 74 1025.1
20210302105119 41 0 2.0 4.0 0.00 0.01 0.00 73 1025.1
20210302104424 40 0 2.0 4.0 0.00 0.01 0.00 73 1025.2
20210302103925 41 0 2.0 5.0 0.00 0.01 0.00 74 1025.1
20210302103654 42 328 2.0 5.0 0.00 0.01 0.00 74 1025.1
20210302103241 43 0 2.0 4.0 0.00 0.01 0.00 68 1025.2
20210302102453 43 283 3.0 5.0 0.00 0.01 0.00 68 1025.2
20210302101925 43 274 3.0 5.0 0.00 0.01 0.00 67 1025.2
20210302101427 43 297 3.0 5.0 0.00 0.01 0.00 67 1025.0
20210302100925 43 275 3.0 5.0 0.00 0.01 0.00 68 1025.0
20210302100430 43 307 3.0 6.0 0.00 0.01 0.00 67 1025.1
20210302095929 44 333 3.0 7.0 0.00 0.01 0.00 67 1025.2
20210302095428 44 304 3.0 7.0 0.00 0.01 0.00 67 1025.1
20210302095112 44 286 4.0 7.0 0.00 0.01 0.00 66 1025.1
20210302094426 44 347 4.0 7.0 0.00 0.01 0.00 67 1025.2
20210302093925 44 333 4.0 6.0 0.00 0.01 0.00 67 1025.2
20210302093700 44 317 4.0 7.0 0.00 0.01 0.00 68 1025.2
20210302093554 44 325 3.0 7.0 0.00 0.01 0.00 69 1025.3
20210302092619 44 345 3.0 5.0 0.00 0.01 0.00 70 1025.3
20210302091932 44 326 3.0 6.0 0.00 0.01 0.00 69 1025.2
20210302091422 44 347 4.0 6.0 0.00 0.01 0.00 69 1025.3
20210302091137 44 359 4.0 6.0 0.00 0.01 0.00 68 1025.4
20210302091042 44 330 4.0 8.0 0.00 0.01 0.00 69 1025.4
20210302090132 45 6 5.0 8.0 0.00 0.01 0.00 70 1025.4
20210302085422 45 7 6.0 10.0 0.00 0.01 0.00 70 1025.5
20210302084922 46 340 7.0 12.0 0.00 0.01 0.00 68 1025.4
20210302084423 46 332 7.0 12.0 0.00 0.01 0.00 68 1025.3
20210302083922 46 357 7.0 12.0 0.00 0.01 0.00 67 1025.3
20210302083527 46 18 7.0 13.0 0.00 0.01 0.00 68 1025.4
20210302082924 46 351 9.0 13.0 0.00 0.01 0.00 68 1025.4
20210302082629 46 340 9.0 13.0 0.00 0.01 0.00 68 1025.4
20210302082154 46 346 8.0 12.0 0.00 0.01 0.00 69 1025.5
20210302081421 46 349 8.0 11.0 0.00 0.01 0.00 70 1025.5
20210302080922 46 358 6.0 11.0 0.00 0.01 0.00 71 1025.6
20210302080421 46 346 6.0 11.0 0.00 0.01 0.00 73 1025.5
20210302075922 46 3 6.0 9.0 0.00 0.01 0.00 72 1025.4
20210302075641 46 350 6.0 9.0 0.00 0.01 0.00 72 1025.5
20210302074959 46 347 5.0 9.0 0.00 0.01 0.00 72 1025.5
20210302074421 47 349 6.0 9.0 0.00 0.01 0.00 71 1025.6
20210302073922 47 349 6.0 9.0 0.00 0.01 0.00 71 1025.6
20210302073531 47 351 7.0 11.0 0.00 0.01 0.00 71 1025.5
20210302073202 47 0 7.0 11.0 0.00 0.01 0.00 70 1025.5
20210302072438 47 347 6.0 10.0 0.00 0.01 0.00 70 1025.5
20210302071923 47 341 6.0 10.0 0.00 0.01 0.00 70 1025.6
20210302071418 47 355 6.0 10.0 0.00 0.01 0.00 71 1025.6
20210302070918 47 351 6.0 10.0 0.00 0.01 0.00 71 1025.7
20210302070420 47 350 6.0 9.0 0.00 0.01 0.00 72 1025.7
20210302065918 47 317 5.0 8.0 0.00 0.01 0.00 72 1025.7
20210302065613 47 346 5.0 8.0 0.00 0.01 0.00 72 1025.7
20210302064932 48 332 4.0 8.0 0.00 0.01 0.00 71 1025.7
20210302064420 48 348 4.0 8.0 0.00 0.01 0.00 71 1025.8
20210302064027 48 326 5.0 8.0 0.00 0.01 0.00 71 1025.8
20210302063128 49 353 5.0 8.0 0.00 0.01 0.00 71 1025.9
20210302061836 49 338 5.0 8.0 0.00 0.01 0.00 71 1025.9
20210302060711 49 358 5.0 9.0 0.00 0.01 0.01 71 1026.0
20210302060049 49 331 6.0 9.0 0.00 0.01 0.01 71 1026.1
20210302055805 49 348 6.0 9.0 0.00 0.01 0.01 71 1026.0
20210302054716 49 340 5.0 9.0 0.00 0.01 0.01 71 1026.0
20210302053919 49 340 5.0 8.0 0.00 0.01 0.01 71 1026.1
20210302053517 49 352 5.0 9.0 0.00 0.01 0.01 71 1026.1
20210302053341 49 301 5.0 10.0 0.00 0.01 0.01 71 1026.0
20210302052451 50 326 6.0 10.0 0.00 0.01 0.01 71 1026.2
20210302051923 50 315 6.0 10.0 0.00 0.01 0.01 70 1026.1
20210302051418 50 349 6.0 9.0 0.00 0.01 0.01 70 1026.1
20210302050914 50 354 6.0 9.0 0.00 0.01 0.01 70 1026.1
20210302050414 50 353 6.0 11.0 0.00 0.01 0.01 70 1026.3
20210302045916 50 342 7.0 11.0 0.00 0.01 0.01 70 1026.3
20210302045414 50 328 7.0 11.0 0.00 0.01 0.01 70 1026.3
20210302044927 50 344 7.0 10.0 0.00 0.01 0.01 70 1026.2
20210302044415 50 339 7.0 14.0 0.00 0.01 0.01 71 1026.2
20210302043919 51 344 7.0 14.0 0.00 0.01 0.01 70 1026.2
20210302043449 51 351 7.0 11.0 0.00 0.01 0.01 70 1026.2
20210302043251 51 353 7.0 13.0 0.00 0.01 0.01 70 1026.3
20210302042445 51 345 7.0 13.0 0.00 0.01 0.01 70 1026.3
20210302041920 51 349 7.0 11.0 0.00 0.01 0.01 70 1026.3
20210302041414 51 331 7.0 11.0 0.00 0.01 0.01 69 1026.3
20210302040917 51 350 6.0 10.0 0.00 0.01 0.01 70 1026.2
20210302040415 51 346 7.0 11.0 0.00 0.01 0.01 70 1026.2
20210302035917 51 350 7.0 11.0 0.00 0.01 0.01 70 1026.2
20210302035414 51 345 8.0 13.0 0.00 0.01 0.01 70 1026.2
20210302035020 51 332 8.0 13.0 0.00 0.01 0.01 69 1026.2
20210302034417 51 333 7.0 11.0 0.00 0.01 0.01 70 1026.2
20210302033914 51 330 8.0 16.0 0.00 0.01 0.01 70 1026.2
20210302033421 51 358 9.0 16.0 0.00 0.01 0.01 69 1026.2
20210302033024 51 332 9.0 13.0 0.00 0.01 0.01 69 1026.1
20210302032421 51 355 9.0 15.0 0.00 0.01 0.01 69 1026.1
20210302031911 51 343 9.0 15.0 0.00 0.01 0.01 69 1026.1
20210302031411 51 345 10.0 14.0 0.00 0.01 0.01 69 1026.0
20210302030914 51 352 9.0 14.0 0.00 0.01 0.01 69 1026.0
20210302030412 51 4 9.0 16.0 0.00 0.01 0.01 70 1026.0
20210302025910 51 2 10.0 16.0 0.00 0.01 0.01 70 1026.1
20210302025626 51 16 9.0 15.0 0.00 0.01 0.01 70 1026.1
20210302024911 51 358 8.0 15.0 0.00 0.01 0.01 71 1026.1
20210302024410 51 325 8.0 14.0 0.00 0.01 0.01 71 1026.1
20210302023917 51 333 9.0 14.0 0.00 0.01 0.01 71 1026.0
20210302023411 51 353 9.0 14.0 0.00 0.01 0.01 71 1025.9
20210302022916 51 355 9.0 13.0 0.00 0.01 0.01 71 1025.8
20210302022429 51 339 9.0 14.0 0.00 0.01 0.01 71 1025.8
20210302021912 51 5 10.0 16.0 0.00 0.01 0.01 71 1025.8
20210302021410 51 346 10.0 16.0 0.00 0.01 0.01 71 1025.7
20210302020909 51 326 9.0 16.0 0.00 0.01 0.01 72 1025.7
20210302020413 51 329 9.0 16.0 0.00 0.01 0.01 72 1025.7
20210302015913 50 0 8.0 15.0 0.00 0.01 0.01 73 1025.7
20210302015410 50 332 8.0 12.0 0.00 0.01 0.01 73 1025.6
20210302015117 50 345 8.0 14.0 0.00 0.01 0.01 73 1025.6
20210302014410 50 355 9.0 14.0 0.00 0.01 0.01 73 1025.4
20210302013910 50 352 9.0 14.0 0.00 0.01 0.01 73 1025.4
20210302013724 51 1 10.0 18.0 0.00 0.01 0.01 73 1025.3
20210302013452 51 5 11.0 18.0 0.00 0.01 0.01 73 1025.2
20210302012627 51 353 11.0 17.0 0.00 0.01 0.01 73 1025.0
20210302011909 51 10 11.0 20.0 0.00 0.01 0.01 72 1025.1
20210302011405 51 355 11.0 20.0 0.00 0.01 0.01 72 1025.2
20210302010906 51 1 12.0 22.0 0.00 0.01 0.01 72 1025.0
20210302010413 51 0 12.0 22.0 0.00 0.01 0.01 73 1024.9
20210302005906 51 3 12.0 22.0 0.00 0.01 0.01 72 1024.9
20210302005406 51 3 12.0 20.0 0.00 0.01 0.01 72 1024.8
20210302005127 51 358 13.0 24.0 0.00 0.01 0.01 72 1024.8
20210302004407 51 4 13.0 24.0 0.00 0.01 0.01 72 1024.5
20210302003906 51 355 11.0 19.0 0.00 0.01 0.01 72 1024.4
20210302003622 51 15 11.0 19.0 0.00 0.01 0.01 73 1024.2
20210302003400 51 8 10.0 17.0 0.00 0.01 0.01 72 1024.3
20210302002413 51 356 11.0 17.0 0.00 0.01 0.01 72 1024.1
20210302001911 51 6 12.0 17.0 0.00 0.01 0.01 72 1023.9
20210302001406 51 10 11.0 17.0 0.00 0.01 0.01 72 1023.8
20210302000918 51 17 11.0 17.0 0.00 0.01 0.01 73 1023.9
20210302000419 52 1 11.0 19.0 0.00 0.01 0.01 72 1023.7
20210301235919 52 358 12.0 19.0 0.00 0.01 0.01 72 1023.7
20210301235420 52 354 13.0 21.0 0.00 0.01 0.01 72 1023.7
20210301235118 52 352 12.0 21.0 0.00 0.01 0.01 72 1023.6
20210301234420 52 324 11.0 21.0 0.00 0.01 0.01 72 1023.6
20210301233916 52 320 12.0 21.0 0.00 0.01 0.01 72 1023.6
20210301233438 52 11 12.0 21.0 0.00 0.01 0.01 72 1023.5
20210301233312 52 3 11.0 21.0 0.00 0.01 0.01 72 1023.4
20210301232547 53 356 11.0 21.0 0.00 0.01 0.01 72 1023.4
20210301231916 53 1 12.0 21.0 0.00 0.01 0.01 71 1023.5
20210301231416 53 359 11.0 21.0 0.00 0.01 0.01 71 1023.4
20210301230924 53 347 10.0 17.0 0.00 0.01 0.01 71 1023.3
20210301230419 53 335 11.0 19.0 0.00 0.01 0.01 70 1023.3
20210301225918 53 13 11.0 20.0 0.00 0.01 0.01 70 1023.3
20210301225418 53 3 13.0 20.0 0.00 0.01 0.01 70 1023.3
20210301224941 53 359 13.0 20.0 0.00 0.01 0.01 69 1023.1
20210301224419 53 359 12.0 18.0 0.00 0.01 0.01 69 1023.1
20210301223917 54 355 12.0 20.0 0.00 0.01 0.01 70 1023.1
20210301223453 54 357 12.0 20.0 0.00 0.01 0.01 70 1022.8
20210301223229 54 2 11.0 17.0 0.00 0.01 0.01 69 1022.8
20210301222525 54 355 10.0 17.0 0.00 0.01 0.01 68 1022.6
20210301221916 54 345 9.0 15.0 0.00 0.01 0.01 69 1022.6
20210301221419 54 20 9.0 18.0 0.00 0.01 0.01 69 1022.6
20210301220926 54 353 11.0 20.0 0.00 0.01 0.01 69 1022.6
20210301220415 54 342 11.0 20.0 0.00 0.01 0.01 68 1022.5
20210301215903 54 25 11.0 20.0 0.00 0.01 0.01 69 1022.5
20210301215403 54 18 13.0 21.0 0.00 0.01 0.01 69 1022.5
20210301215114 54 17 11.0 21.0 0.00 0.01 0.01 69 1022.4
20210301214403 54 8 11.0 18.0 0.00 0.01 0.01 68 1022.3
20210301213909 54 4 13.0 22.0 0.00 0.01 0.01 68 1022.2
20210301213647 54 346 12.0 22.0 0.00 0.01 0.01 68 1022.1
20210301213335 54 350 12.0 20.0 0.00 0.01 0.01 67 1022.1
20210301212552 54 3 13.0 22.0 0.00 0.01 0.01 68 1022.1
20210301211912 54 1 11.0 22.0 0.00 0.01 0.01 68 1022.2
20210301211358 54 33 11.0 21.0 0.00 0.01 0.01 69 1022.3
20210301210903 53 9 12.0 21.0 0.00 0.01 0.01 69 1022.3
20210301210401 53 11 12.0 21.0 0.00 0.01 0.01 69 1022.3
20210301205900 53 10 12.0 21.0 0.00 0.01 0.01 70 1022.2
20210301205359 53 358 12.0 19.0 0.00 0.01 0.01 70 1022.2
20210301205159 53 0 11.0 19.0 0.00 0.01 0.01 70 1022.2
20210301204423 54 7 10.0 19.0 0.00 0.01 0.01 70 1022.2
20210301203912 53 357 10.0 19.0 0.00 0.01 0.01 70 1022.2
20210301203455 53 5 9.0 15.0 0.00 0.01 0.01 70 1022.1
20210301203248 53 17 9.0 15.0 0.00 0.01 0.01 71 1022.2
20210301202420 53 22 9.0 14.0 0.00 0.01 0.01 70 1022.3
20210301201858 53 21 10.0 15.0 0.00 0.01 0.01 71 1022.4
20210301201358 53 9 11.0 18.0 0.00 0.01 0.01 71 1022.6
20210301200857 53 28 10.0 18.0 0.00 0.01 0.01 70 1022.4
20210301200403 53 333 9.0 14.0 0.00 0.01 0.01 72 1022.3
20210301195857 52 358 9.0 14.0 0.00 0.01 0.01 72 1022.4
20210301195400 52 30 10.0 16.0 0.00 0.01 0.01 72 1022.4
20210301195129 52 26 12.0 22.0 0.00 0.01 0.01 72 1022.4
20210301194358 52 345 12.0 22.0 0.00 0.01 0.01 72 1022.5
20210301193900 52 348 13.0 21.0 0.00 0.01 0.01 73 1022.6
20210301193448 51 14 13.0 21.0 0.00 0.01 0.01 72 1022.4
20210301192954 51 8 12.0 21.0 0.00 0.01 0.01 72 1022.4
20210301192424 51 355 11.0 21.0 0.00 0.01 0.01 72 1022.5
20210301191854 51 18 11.0 18.0 0.00 0.01 0.01 73 1022.4
20210301191354 52 346 11.0 18.0 0.00 0.01 0.01 73 1022.5
20210301190859 52 17 10.0 17.0 0.00 0.01 0.01 73 1022.4
20210301190355 51 21 12.0 21.0 0.00 0.01 0.01 73 1022.4
20210301185855 51 6 12.0 21.0 0.00 0.01 0.01 73 1022.3
20210301185354 51 358 12.0 21.0 0.00 0.01 0.01 74 1022.5
20210301184921 51 10 12.0 21.0 0.00 0.01 0.01 73 1022.5
20210301184354 51 0 10.0 16.0 0.00 0.01 0.01 73 1022.5
20210301183856 51 16 11.0 19.0 0.00 0.01 0.01 73 1022.5
20210301183654 51 12 11.0 19.0 0.00 0.01 0.01 74 1022.5
20210301183328 51 5 11.0 19.0 0.00 0.01 0.01 74 1022.3
20210301182357 51 30 11.0 21.0 0.00 0.01 0.01 74 1022.5
20210301181855 51 24 12.0 21.0 0.00 0.01 0.01 74 1022.5
20210301181353 51 41 12.0 20.0 0.00 0.01 0.01 74 1022.4
20210301180854 51 10 12.0 20.0 0.00 0.01 0.01 74 1022.1
20210301180358 50 6 13.0 26.0 0.00 0.01 0.01 75 1022.1
20210301175858 50 5 15.0 26.0 0.00 0.01 0.01 75 1022.2
20210301175354 50 22 13.0 24.0 0.00 0.01 0.01 74 1022.2
20210301175038 51 5 11.0 20.0 0.00 0.01 0.01 74 1022.3
20210301174357 50 356 12.0 23.0 0.00 0.01 0.01 75 1022.1
20210301173850 50 27 14.0 23.0 0.00 0.01 0.01 75 1022.2
20210301173409 51 353 14.0 23.0 0.00 0.01 0.01 74 1022.2
20210301173137 51 354 14.0 23.0 0.00 0.01 0.01 74 1022.1
20210301172404 51 17 15.0 28.0 0.00 0.01 0.01 74 1022.1
20210301171851 51 14 14.0 29.0 0.00 0.01 0.01 73 1021.9
20210301171350 51 359 13.0 29.0 0.00 0.01 0.01 73 1021.7
20210301170850 51 356 12.0 21.0 0.00 0.00 0.00 74 1021.9
20210301170354 50 10 14.0 27.0 0.00 0.00 0.00 74 1021.9
20210301165850 50 21 15.0 27.0 0.00 0.00 0.00 74 1021.8
20210301165352 50 12 15.0 28.0 0.00 0.00 0.00 75 1021.6
20210301164935 50 14 17.0 28.0 0.00 0.00 0.00 74 1021.7
20210301164357 50 357 17.0 28.0 0.00 0.00 0.00 75 1021.5
20210301163852 50 357 16.0 26.0 0.00 0.00 0.00 75 1021.5
20210301163522 50 18 16.0 27.0 0.00 0.00 0.00 75 1021.5
20210301163345 50 13 16.0 27.0 0.00 0.00 0.00 75 1021.5
20210301162401 50 350 15.0 24.0 0.00 0.00 0.00 76 1021.4
20210301161853 50 13 15.0 23.0 0.00 0.00 0.00 76 1021.5
20210301161349 50 12 14.0 24.0 0.00 0.00 0.00 76 1021.3
20210301160850 50 10 15.0 27.0 0.00 0.00 0.00 76 1021.3
20210301160352 50 0 15.0 27.0 0.00 0.00 0.00 76 1021.1
20210301155850 49 1 14.0 24.0 0.00 0.00 0.00 77 1021.1
20210301155353 49 359 15.0 25.0 0.00 0.00 0.00 77 1021.2
20210301155035 49 7 15.0 25.0 0.00 0.00 0.00 77 1021.1
20210301154353 49 359 14.0 25.0 0.00 0.00 0.00 77 1021.1
20210301153847 49 355 14.0 22.0 0.00 0.00 0.00 77 1020.7
20210301153434 49 15 13.0 22.0 0.00 0.00 0.00 77 1020.6
20210301152856 49 355 13.0 21.0 0.00 0.00 0.00 76 1020.7
20210301152346 49 0 14.0 23.0 0.00 0.00 0.00 76 1020.6
20210301151849 49 7 15.0 26.0 0.00 0.00 0.00 76 1020.4
20210301151353 49 3 15.0 26.0 0.00 0.00 0.00 76 1020.3
20210301150845 49 0 14.0 26.0 0.00 0.00 0.00 76 1020.4
20210301150346 49 330 14.0 23.0 0.00 0.00 0.00 76 1020.4
20210301145845 49 359 13.0 23.0 0.00 0.00 0.00 75 1020.4
20210301145345 49 339 14.0 25.0 0.00 0.00 0.00 75 1020.3
20210301144847 49 6 15.0 25.0 0.00 0.00 0.00 74 1020.4
20210301144349 49 352 15.0 26.0 0.00 0.00 0.00 74 1020.0
20210301143849 49 357 14.0 26.0 0.00 0.00 0.00 73 1019.9
20210301143347 49 6 14.0 25.0 0.00 0.00 0.00 73 1020.0
20210301142859 49 0 15.0 25.0 0.00 0.00 0.00 73 1019.8
20210301142452 49 359 15.0 22.0 0.00 0.00 0.00 72 1019.8
20210301141849 49 351 14.0 22.0 0.00 0.00 0.00 72 1019.6
20210301141346 48 13 13.0 22.0 0.00 0.00 0.00 73 1019.5
20210301140845 48 11 14.0 21.0 0.00 0.00 0.00 73 1019.6
20210301140349 48 351 14.0 21.0 0.00 0.00 0.00 72 1019.5
20210301135859 48 12 14.0 21.0 0.00 0.00 0.00 73 1019.2
20210301135430 48 356 15.0 27.0 0.00 0.00 0.00 73 1019.0